Weather History for CYGV - March, 2014

Change the Weather History Date:

Sunday, March 2, 2014

  Actual Average Record
Temperature  
Mean Temperature 6 °F -  
Max Temperature 15 °F 27 °F 41 °F (2013)
Min Temperature -4 °F 10 °F -13 °F (2001)
Degree Days  
Heating Degree Days 58    
Moisture  
Dew Point 1 °F    
Average Humidity 76    
Maximum Humidity 92    
Minimum Humidity 45    
Precipitation  
Precipitation 0.00 in - - ()
Sea Level Pressure  
Sea Level Pressure 29.90 in    
Wind  
Wind Speed 10 mph ()    
Max Wind Speed 20 mph    
Max Gust Speed 24 mph    
Visibility 6.1 miles    
Events Snow    
Averages and records for this station are not official NWS values.
T = Trace of Precipitation, MM = Missing Value Source: Averaged Metar Reports

Daily Weather History Graph

Daily Weather History Graph

Search for Another Location

Airport or City:

Trip Planner

Search our weather history database for the weather conditions in past years. The results will help you decide how hot, cold, wet, or windy it might be!

Date:

Astronomy

Mar. 02, 2014 Rise Set
Actual Time 5:55 AM EST 4:57 PM EST
Civil Twilight 5:23 AM EST 5:30 PM EST
Nautical Twilight 4:45 AM EST 6:08 PM EST
Astronomical Twilight 4:08 AM EST 6:46 PM EST
Moon 6:12 AM EST (3/2) 7:04 PM EST (3/2)
Length of Visible Light 12h 07m
Length of Day
11h 01m
Waxing Crescent, 3% of the Moon is Illuminated
Mar 2
Waxing Crescent
Mar 8
First Quarter
Mar 16
Full
Mar 23
Last Quarter
Mar 30
New

Hourly Weather History & Observations

Time (EST) Temp. Windchill Dew Point Humidity Pressure Visibility Wind Dir Wind Speed Gust Speed Precip Events Conditions
12:00 AM 5.0 °F -10.0 °F 1.4 °F 85% 30.01 in 1.5 mi ENE 10.4 mph - N/A Snow Light Snow
12:47 AM 5.0 °F -10.8 °F 1.4 °F 85% 29.98 in 1.2 mi NE 11.5 mph - N/A Snow Light Snow
1:00 AM 5.0 °F -11.6 °F 1.4 °F 85% 29.96 in 1.0 mi NE 12.7 mph - N/A Snow Light Snow
2:00 AM 5.0 °F -11.6 °F 1.4 °F 85% 29.92 in 1.0 mi NE 12.7 mph - N/A Snow Light Snow
2:16 AM 5.0 °F -11.6 °F 3.2 °F 92% 29.91 in 1.5 mi NE 12.7 mph - N/A Snow Light Snow
3:00 AM 5.0 °F -13.0 °F 3.2 °F 92% 29.88 in 1.5 mi NE 15.0 mph 20.7 mph N/A Snow Light Snow
3:03 AM 5.0 °F -12.3 °F 3.2 °F 92% 29.88 in 2.0 mi NE 13.8 mph 19.6 mph N/A Snow Light Snow
3:21 AM 6.8 °F -11.3 °F 3.2 °F 85% 29.88 in 1.8 mi NE 16.1 mph - N/A Snow Light Snow
3:58 AM 6.8 °F -8.6 °F 3.2 °F 85% 29.87 in 2.0 mi NNE 11.5 mph - N/A Snow Light Snow
4:00 AM 6.8 °F -8.6 °F 3.2 °F 85% 29.87 in 2.0 mi NNE 11.5 mph - N/A Snow Light Snow
4:21 AM 6.8 °F -7.8 °F 3.2 °F 85% 29.87 in 3.0 mi NNE 10.4 mph - N/A Snow Light Snow
4:31 AM 5.0 °F -9.1 °F 3.2 °F 92% 29.86 in 5.0 mi NNE 9.2 mph - N/A Snow Light Snow
4:36 AM 5.0 °F -9.1 °F 1.4 °F 85% 29.86 in 6.0 mi NNE 9.2 mph - N/A Snow Light Snow
4:40 AM 5.0 °F -10.8 °F 1.4 °F 85% 29.85 in 7.0 mi NE 11.5 mph - N/A Snow Light Snow
4:51 AM 5.0 °F -9.1 °F 1.4 °F 85% 29.86 in 9.0 mi NNE 9.2 mph - N/A Snow Light Snow
5:00 AM 3.2 °F -12.2 °F -0.4 °F 85% 29.86 in 9.0 mi NE 10.4 mph - N/A Snow Light Snow
5:49 AM 1.4 °F -12.5 °F -2.2 °F 85% 29.86 in 9.0 mi North 8.1 mph - N/A   Clear
6:00 AM 1.4 °F -12.5 °F -2.2 °F 85% 29.87 in 9.0 mi North 8.1 mph - N/A   Clear
6:33 AM 1.4 °F -11.3 °F -0.4 °F 92% 29.88 in 9.0 mi North 6.9 mph - N/A   Mostly Cloudy
6:36 AM 3.2 °F -9.1 °F -0.4 °F 85% 29.88 in 9.0 mi North 6.9 mph - N/A Snow Light Snow
6:49 AM 3.2 °F -7.8 °F -0.4 °F 85% 29.88 in 9.0 mi North 5.8 mph - N/A   Overcast
6:53 AM 3.2 °F -7.8 °F -0.4 °F 85% 29.88 in 6.0 mi NNW 5.8 mph - N/A Snow Light Snow
6:54 AM 3.2 °F -7.8 °F -0.4 °F 85% 29.89 in 5.0 mi NNW 5.8 mph - N/A Snow Light Snow
7:00 AM 3.2 °F -11.3 °F -0.4 °F 85% 29.89 in 3.0 mi NNW 9.2 mph - N/A Snow Light Snow
7:04 AM 5.0 °F -6.9 °F 1.4 °F 85% 29.89 in 2.2 mi NNW 6.9 mph - N/A Snow Light Snow
7:21 AM 5.0 °F -4.1 °F 1.4 °F 85% 29.90 in 3.0 mi North 4.6 mph - N/A Snow Light Snow
7:31 AM 5.0 °F -5.6 °F 1.4 °F 85% 29.89 in 2.2 mi NNW 5.8 mph - N/A Snow Light Snow
7:36 AM 5.0 °F -5.6 °F 1.4 °F 85% 29.89 in 3.0 mi NNW 5.8 mph - N/A Snow Light Snow
7:41 AM 6.8 °F -2.0 °F 1.4 °F 79% 29.89 in 6.0 mi NNW 4.6 mph - N/A Snow Light Snow
7:49 AM 6.8 °F -3.5 °F 3.2 °F 85% 29.90 in 5.0 mi NW 5.8 mph - N/A Snow Light Snow
7:53 AM 6.8 °F -3.5 °F 3.2 °F 85% 29.90 in 6.0 mi NW 5.8 mph - N/A Snow Light Snow
8:00 AM 6.8 °F -3.5 °F 3.2 °F 85% 29.90 in 9.0 mi NW 5.8 mph - N/A Snow Light Snow
8:27 AM 8.6 °F -1.3 °F 3.2 °F 79% 29.90 in 8.0 mi WNW 5.8 mph - N/A   Scattered Clouds
8:29 AM 8.6 °F 0.1 °F 3.2 °F 79% 29.90 in 8.0 mi WNW 4.6 mph - N/A Snow Light Snow
8:30 AM 8.6 °F -1.3 °F 3.2 °F 79% 29.90 in 8.0 mi WNW 5.8 mph - N/A Snow Light Snow
8:35 AM 8.6 °F -2.6 °F 3.2 °F 79% 29.90 in 5.0 mi West 6.9 mph - N/A Snow Light Snow
9:00 AM 8.6 °F -3.7 °F 3.2 °F 79% 29.91 in 9.0 mi West 8.1 mph - N/A   Mostly Cloudy
9:01 AM 8.6 °F -3.7 °F 3.2 °F 79% 29.91 in 9.0 mi West 8.1 mph - N/A Snow Light Snow
9:11 AM 8.6 °F -2.6 °F 3.2 °F 79% 29.91 in 9.0 mi West 6.9 mph - N/A Snow Light Snow
9:19 AM 8.6 °F -2.6 °F 3.2 °F 79% 29.91 in 7.0 mi WSW 6.9 mph - N/A   Partly Cloudy
10:00 AM 12.2 °F -2.5 °F 5.0 °F 73% 29.91 in 9.0 mi West 12.7 mph - N/A   Clear
11:00 AM 14.0 °F 1.2 °F 5.0 °F 67% 29.90 in 9.0 mi West 10.4 mph - N/A   Clear
11:27 AM 14.0 °F 1.2 °F 5.0 °F 67% 29.89 in 9.0 mi West 10.4 mph 18.4 mph N/A   Mostly Cloudy
11:31 AM 14.0 °F 0.5 °F 5.0 °F 67% 29.89 in 9.0 mi WNW 11.5 mph - N/A   Mostly Cloudy
11:37 AM 14.0 °F -1.4 °F 6.8 °F 73% 29.89 in 5.0 mi West 15.0 mph - N/A   Haze
11:39 AM 14.0 °F -1.4 °F 6.8 °F 73% 29.89 in 5.0 mi West 15.0 mph - N/A Snow Light Snow
11:42 AM 14.0 °F -1.4 °F 6.8 °F 73% 29.89 in 3.0 mi West 15.0 mph - N/A Snow Light Snow
11:44 AM 14.0 °F -2.5 °F 6.8 °F 73% 29.89 in 1.5 mi West 17.3 mph - N/A Snow Light Snow
11:52 AM 14.0 °F -2.0 °F 6.8 °F 73% 29.89 in 2.0 mi West 16.1 mph - N/A Snow Light Snow
11:53 AM 14.0 °F -2.0 °F 6.8 °F 73% 29.89 in 2.2 mi West 16.1 mph - N/A Snow Light Snow
11:54 AM 14.0 °F -2.5 °F 6.8 °F 73% 29.89 in 4.0 mi West 17.3 mph - N/A Snow Light Snow
11:56 AM 14.0 °F -2.0 °F 6.8 °F 73% 29.89 in 6.0 mi West 16.1 mph - N/A Snow Light Snow
12:00 PM 14.0 °F -3.0 °F 6.8 °F 73% 29.89 in 9.0 mi West 18.4 mph - N/A Snow Light Snow
12:18 PM 14.0 °F -3.4 °F 6.8 °F 73% 29.88 in 5.0 mi West 19.6 mph - N/A Snow Light Snow
12:39 PM 14.0 °F -2.5 °F 6.8 °F 73% 29.89 in 6.0 mi West 17.3 mph 24.2 mph N/A Snow Light Snow
1:00 PM 14.0 °F -3.4 °F 6.8 °F 73% 29.88 in 7.0 mi West 19.6 mph - N/A Snow Light Snow
1:27 PM 14.0 °F -0.2 °F 1.4 °F 57% 29.88 in 9.0 mi West 12.7 mph - N/A   Clear
2:00 PM 15.8 °F 0.9 °F -0.4 °F 49% 29.89 in 9.0 mi West 15.0 mph - N/A   Clear
2:21 PM 14.0 °F -1.4 °F -2.2 °F 49% 29.89 in 9.0 mi West 15.0 mph - N/A Snow Light Snow
2:31 PM 14.0 °F -0.8 °F -2.2 °F 49% 29.89 in 9.0 mi West 13.8 mph - N/A   Clear
3:00 PM 14.0 °F -0.8 °F -4.0 °F 45% 29.89 in 9.0 mi West 13.8 mph - N/A   Clear
4:00 PM 12.2 °F -1.8 °F -4.0 °F 48% 29.90 in 9.0 mi West 11.5 mph - N/A   Clear
5:00 PM 8.6 °F -4.7 °F -5.8 °F 52% 29.90 in 9.0 mi WNW 9.2 mph - N/A   Clear
5:06 PM - - - N/A% - 4.0 mi WNW 8.1 mph - N/A   Haze
5:16 PM 8.6 °F -4.7 °F -5.8 °F 52% 29.91 in 9.0 mi WNW 9.2 mph - N/A   Clear
6:00 PM 6.8 °F -5.9 °F -5.8 °F 56% 29.92 in 9.0 mi WNW 8.1 mph - N/A   Clear
7:00 PM 3.2 °F -6.2 °F -7.6 °F 61% 29.93 in 9.0 mi North 4.6 mph - N/A   Clear
8:00 PM 1.4 °F -11.3 °F -7.6 °F 66% 29.94 in 9.0 mi North 6.9 mph - N/A   Partly Cloudy
9:00 PM -2.2 °F -12.5 °F -11.2 °F 66% 29.94 in 9.0 mi NNE 4.6 mph - N/A   Clear
10:00 PM -2.2 °F -18.0 °F -9.4 °F 71% 29.92 in 9.0 mi NNE 9.2 mph - N/A   Scattered Clouds
11:00 PM -4.0 °F -20.2 °F -11.2 °F 71% 29.91 in 9.0 mi NE 9.2 mph - N/A   Mostly Cloudy